Погода в селе Вад

Россия / Нижегородская область     55°31′53″N   44°12′33″E
темп.,
°C
ветер,
м/с
пор.,
м/с
влажн.,
%
обл.,
%
осадки,
мм/ч
давл.,
гПа
погр.,
м
17 мая, вт
вт1700:00+6зюз379616 0.1 1002288
03:00+4зюз4109712 0.1 1002313
06:00+6зюз599362 0.0 1001454
09:00+8зюз568393 0.1 1001736
12:00+7зюз4687100 0.1 1001651
15:00+10зюз447397 0.1 10011000
18:00+9з227299 0.0 1001795
21:00+6зсз128097 0.1 100214
18 мая, ср
ср1800:00+6сз238197 0.0 100236
03:00+4зсз2292100 0.0 100327
06:00+7ссз4895100 0.0 1003496
09:00+7ссз5793100 0.2 1005490
12:00+7ссз4787100 0.2 1008544
15:00+9ссз7877100 0.1 1008903
18:00+9ссз36705 0.0 1009893
21:00+6з3479100 0.0 101069
19 мая, чт
чт1900:00+6сз4784100 0.0 1011780
03:00+5сз588976 0.3 1011668
06:00+4зсз4890100 0.1 1012367
09:00+8з4667100 0.1 10111282
12:00+4зсз4896100 3.9 1012668
15:00+5сз589399 4.0 1012644
18:00+8ссз69735 0.2 10121057
21:00+3сз36872 0.2 101493
20 мая, пт
пт2000:00+1зсз399211 0.0 1014167
03:00+1зсз4109379 0.0 1014237
06:00+3сз6108878 0.0 1015706
09:00+5ссз71067100 0.0 10161324
12:00+8ссз676099 0.1 10161629
15:00+10ссз464889 0.1 10162137
18:00+10ссз36581 0.0 1015403
21:00+4зсз22682 0.0 101610
21 мая, сб
сб2100:00+2з227477 0.0 101510
03:00+1зюз227555 0.0 101411
06:00+5зюз12685 0.0 101399
09:00+10всв01535 0.0 1011744
12:00+12всв214498 0.0 10102086
15:00+12ссв224683 0.0 10091815
18:00+11ссв235815 0.1 1008431
21:00+5св348596 0.1 100958